Regional Weather Roundup
Issued by NWS

Home | Current Version | Previous Version | Graphics & Text | Print | Product List | Glossary On
Versions: 1 2 3 4 5 6 7 8 9 10 11 12 13 14 15 16 17 18 19 20 21 22 23 24 25 26 27
000
ASUS45 KTFX 121810
RWRMT
MONTANA REGIONAL WEATHER ROUNDUP
NATIONAL WEATHER SERVICE GREAT FALLS MT
1100 AM MST TUE DEC 12 2017

NOTE: "FAIR" INDICATES FEW OR NO CLOUDS BELOW 12000 FEET WITH NO
SIGNIFICANT WEATHER AND/OR OBSTRUCTIONS TO VISIBILITY.

MTZ001>007-043-121900-
WEST OF THE DIVIDE

CITY           SKY/WX    TMP DP  RH WIND       PRES   REMARKS
KALISPELL      FOG       23  23 100 W3        30.51R VSB 1
MISSOULA       CLOUDY    19  15  84 CALM      30.54F FOG
BUTTE          FAIR      21  10  62 CALM      30.40F
MULLAN PASS    FAIR      32   9  38 SW6       30.41R WCI  26
ANACONDA         N/A     27  12  54 E3        30.39F
DEER LODGE       N/A     18  16  93 CALM      30.45F
EUREKA           N/A     25  18  74 MISG      30.49F
HAMILTON         N/A     14  10  85 CALM      30.53S VSB 1/4
LIBBY            N/A     25  19  80 CALM      30.51S
RONAN            N/A     23  20  89 CALM      30.47F
$$

MTZ008-052>055-121900-
SOUTHWEST MONTANA

CITY           SKY/WX    TMP DP  RH WIND       PRES   REMARKS
BOZEMAN        FAIR      24  15  68 CALM      30.39S
DILLON         FAIR      32  12  43 S17       30.39F WCI  21
W YELLOWSTONE  FAIR      12  10  92 CALM      30.53F
ENNIS          CLOUDY    39  16  38 S16       30.42F WCI  30
THREE FORKS      N/A     16  10  77 CALM      30.32F
TWIN BRIDGES     N/A     31  13  47 CALM      30.34F
$$

MTZ009-010-012-014-046-048-049-054-121900-
EAST SLOPES AND CENTRAL MONTANA

CITY           SKY/WX    TMP DP  RH WIND       PRES   REMARKS
CUT BANK       FAIR      49  -1  12 W44G56    30.08F
GREAT FALLS    FAIR      55   0  10 SW30G39   30.16R
MALMSTROM AFB  FAIR      58   2  10 W22G33    30.17R
HELENA         FOG       18  17  96 NE5       30.37F VSB 1/2
BOWMANS CRNR   FAIR      48   1  15 S21G32    30.17S
CHOTEAU          N/A     54  -9   7 E14       30.16R
FAIRFIELD      FAIR      56  -3   9 SW29G35   30.14R
POWER          FAIR      50   4  15 SW14      30.15R
RAYNESFORD     FAIR      60  -1   8 S5        30.16S
ULM            FAIR      56   2  11 SW25G33   30.17S
$$

MTZ011-013-016-021-045-047-050-051-121900-
NORTH CENTRAL MONTANA

CITY           SKY/WX    TMP DP  RH WIND       PRES   REMARKS
HAVRE          FAIR      50   8  18 SW25G36   30.03F
LEWISTOWN      FAIR      50  22  33 SW10      30.14F
N BAR RANCH    FAIR      59  -6   7 W15       30.13F
CHINOOK          N/A     55   3  12 W24G36    29.99F
DENTON         FAIR      62   4  10 W23G32    30.06F
GEYSER         FAIR      59   1   9 W26G35    30.11F
GRASS RANGE    FAIR      55   8  15 W18G25    30.06F
STANFORD       FAIR      63  -2   7 W23G33    30.11S
WINIFRED       FAIR      55   5  13 W9        30.08F
$$

MTZ017>020-022>027-061-062-121900-
NORTHEAST MONTANA

CITY           SKY/WX    TMP DP  RH WIND       PRES   REMARKS
GLASGOW        FAIR      36  23  59 NW5       29.99F
GLENDIVE       FAIR      43  26  51 S13       30.00F
JORDAN           N/A     51  22  31 W9        30.03F
SIDNEY         FAIR      40  27  59 SW13      29.97F
WOLF POINT     FAIR      39  24  55 W12       29.98F WCI  32
MALTA          SUNNY     34  25  69 SW7       29.99F WCI  28
PLENTYWOOD       N/A     34  28  80 CALM      29.91F
POPLAR           N/A     39  25  56 SW9G16    29.97F
$$

MTZ028>42-056>058-121900-
SOUTHCENTRAL AND SOUTHEAST MONTANA

CITY           SKY/WX    TMP DP  RH WIND       PRES   REMARKS
BAKER          FAIR      45  24  43 W18       30.05F
BILLINGS       FAIR      50  21  32 SW22G32   30.16F
LIVINGSTON     FAIR      51   9  18 SW30G43   30.29S
MILES CITY     FAIR      44  25  47 SW8       30.06F
BIG TIMBER     SUNNY     52   7  16 W37G44    30.22F
FORSYTH          N/A     54  16  22 SW12      30.08F
LAUREL           N/A     54  19  26 SW22      30.17F
ROUNDUP          N/A     60   3  10 SW25      30.00F
$$

REGIONAL REPORTS...DAKOTAS

CITY           SKY/WX    TMP DP  RH WIND       PRES   REMARKS
WILLISTON      FAIR      40  26  57 SW13      29.95F
MINOT          FAIR      43  26  51 SW16      29.86F
DICKINSON      FAIR      47  25  42 W16       29.94F
BEACH          FAIR      45  21  39 W22G29    30.02F
CROSBY         FAIR      39  27  60 SW15      29.89F WCI  31
TIOGA          FAIR      37  28  70 W15       29.90F WCI  28
WATFORD CITY   FAIR      43  27  52 W15       29.94F
BISMARCK       FAIR      42  27  55 W8        29.96F
GRAND FORKS    CLOUDY    28  26  92 S10       29.89F WCI  19
FARGO          PTSUNNY   32  27  81 S9        29.94F WCI  24
BUFFALO SD       N/A     51  24  34 W17       29.98F
RAPID CITY     FAIR      49  17  28 SE5       30.11F
$$

REGIONAL REPORTS...WYOMING/IDAHO/WASHINGTON

CITY           SKY/WX    TMP DP  RH WIND       PRES   REMARKS
GILLETTE       FAIR      56  19  23 SW14      30.16F
SHERIDAN       FAIR      56  28  34 CALM      30.15F
BUFFALO WY     FAIR      61  17  18 S6        30.19F
CODY           FAIR      48  20  32 N7        30.26F
YELLOWSTONE LA   N/A     23  20  88 CALM      30.52F
IDAHO FALLS    FAIR      20  16  84 CALM      30.56F
SALMON         LGT SNOW  14  12  92 N5        30.67F FOG
BOISE          CLOUDY    23  21  92 CALM      30.67S FOG
SPOKANE        CLOUDY    23  23 100 W7        30.57R FOG     WCI  15
$$

REGIONAL REPORTS...ALBERTA

CITY           SKY/WX    TMP DP  RH WIND       PRES   REMARKS
EDMONTON       CLOUDY    46  25  42 W17G24    29.93R
CALGARY        PTSUNNY   52  14  22 W10       30.02R
LETHBRIDGE     PTSUNNY   52   3  14 W38G46    30.04S
MEDICINE HAT   CLOUDY    55   9  15 W22       29.95R
$$

REGIONAL REPORTS...SASKATCHEWAN

CITY           SKY/WX    TMP DP  RH WIND       PRES   REMARKS
SWIFT CURRENT  SUNNY     48  12  23 W25G33    29.81F
REGINA         PTSUNNY   39  28  65 W5        29.81F
SASKATOON      PTSUNNY   32  27  80 SW12      29.74F WCI  23
$$




USA.gov is the U.S. government's official web portal to all federal, state and local government web resources and services.